Regional Weather Roundup
Issued by NWS

Home | Current Version | Previous Version | Text Only | Print | Product List | Glossary On
Versions: 1 2 3 4 5 6 7 8 9 10 11 12 13 14 15 16 17 18 19 20 21 22 23 24 25 26 27 28 29 30 31 32 33 34 35 36 37 38 39 40 41 42 43 44 45 46 47 48 49 50
000
ASUS43 KLOT 291510
RWRIL

ILLINOIS REGIONAL WEATHER ROUNDUP
NATIONAL WEATHER SERVICE CHICAGO/ROMEOVILLE IL
900 AM CST MON DEC 29 2014

NOTE: "FAIR" INDICATES FEW OR NO CLOUDS BELOW 12,000 FEET WITH NO
SIGNIFICANT WEATHER AND/OR OBSTRUCTIONS TO VISIBILITY.

* THESE STATIONS ARE NOT UNDER NWS QUALITY CONTROL. THEY ALSO MAY NOT
  REPORT WEATHER SUCH AS PRECIPITATION OR FOG.

ILZ001-002-007-009-015-016-024-291600-
NORTHWEST ILLINOIS

CITY           SKY/WX    TMP DP  RH WIND       PRES   REMARKS
MOLINE         CLOUDY    27  22  81 NE8       30.37R WCI  19
STERLING*      MOSUNNY   27  19  74 NE9       30.37R WCI  17
SAVANNA*       CLOUDY    25  17  69 NE10      30.40R WCI  15
$$

ILZ003-004-008-010-011-017-018-291600-
NORTH CENTRAL ILLINOIS

CITY           SKY/WX    TMP DP  RH WIND       PRES   REMARKS
ROCKFORD       CLOUDY    23  17  78 NE13      30.40R WCI  11
FREEPORT*      MOSUNNY   20  15  81 NE10      30.40R WCI   9
ROCHELLE*      CLOUDY    24  20  86 NE15      30.37R WCI  11
DE KALB*       CLOUDY    23  19  85 N13       30.36R WCI  11
PERU*          PTSUNNY   28  24  84 NE8       30.37R WCI  20
$$

ILZ005-006-012>014-019>023-291600-
NORTHEAST ILLINOIS

CITY           SKY/WX    TMP DP  RH WIND       PRES   REMARKS
CHICAGO-OHARE  PTSUNNY   26  19  74 N12       30.35R WCI  16
CHICAGO-MIDWAY PTSUNNY   32  24  72 N7        30.34R WCI  26
AURORA         CLOUDY    26  20  77 NE12      30.35R HAZE    WCI  16
LANSING*       CLOUDY    32  26  80 NE12      30.34R WCI  23
JOLIET*        PTSUNNY   28  23  83 N8        30.35R WCI  19
WAUKEGAN       PTSUNNY   22  15  75 N9        30.37R WCI  12
DUPAGE AIRPORT CLOUDY    26  20  77 N10       30.35R WCI  16
KANKAKEE*      MOSUNNY   27  23  86 CALM      30.34R
WHEELING       PTSUNNY   26  19  74 N10       30.38R WCI  16
MORRIS*        CLOUDY    28  25  88 NE3       30.34R
ROMEOVILLE*    CLOUDY    29  24  81 N12       30.34R WCI  20
NORTHERLY ISL    N/A     31  23  72 N16         N/A  WCI  20
$$

LMZ740>746-291600-
SOUTHERN LAKE MICHIGAN

STATION/POSITION SKY/WX   TEMP    WIND        PRES    VSBY  WAVE
                          AIR SEA DIR/SP/G                  HT/PER
                          (F)     (DEG/KT/KT) (MB)    (MI)  (FT/S)
WAUKEGAN HARBOR            23     340/  9/ 13   N/A
HARRISON CRIB              30      20/ 16/ 19   N/A
BURNHAM HARBOR             31      10/ 11/ 15   N/A
CALUMET HARBOR             32      10/ 13/ 17 1026.1R
MICHIGAN CITY              31      20/ 17/ 21   N/A
$$

ILZ025>027-034>036-040-047-049-050-058-095>099-291600-
WEST-CENTRAL ILLINOIS

CITY           SKY/WX    TMP DP  RH WIND       PRES   REMARKS
QUINCY         MOSUNNY   28  24  85 E5        30.33R WCI  23
GALESBURG*     SUNNY     25  20  83 NE8       30.35R WCI  16
MACOMB*        SUNNY     25  23  93 NE3       30.36R
JACKSONVILLE*  SUNNY     27  26  94 CALM      30.34R FOG
PITTSFIELD*    SUNNY     28  26  93 CALM      30.33R FOG
$$

ILZ028>032-037-038-041>044-048-051>054-059>061-291600-
CENTRAL ILLINOIS

CITY           SKY/WX    TMP DP  RH WIND       PRES   REMARKS
PONTIAC        MOSUNNY   27  24  87 N5        30.35R WCI  22
BLOOMINGTON    SUNNY     26  22  85 NE7       30.34R WCI  18
DECATUR        SUNNY     27  22  81 E6        30.33R WCI  20
PEORIA         SUNNY     28  21  75 NE8       30.35R WCI  20
LACON*         SUNNY     25  22  89 NW5       30.36  WCI  19
LINCOLN*       SUNNY     27  24  89 CALM      30.35R
SPRINGFIELD    SUNNY     28  23  81 E3        30.34R
TAYLORVILLE    SUNNY     27  23  86 CALM      30.33R
$$

ILZ033-039-045-046-055>057-062-063-291600-
EAST-CENTRAL ILLINOIS

CITY           SKY/WX    TMP DP  RH WIND       PRES   REMARKS
CHAMPAIGN      SUNNY     29  21  72 NE7       30.32R WCI  22
DANVILLE*      SUNNY     26  22  85 NE5       30.30R WCI  20
RANTOUL*       SUNNY     29  22  75 NE6       30.33R WCI  23
MATTOON        SUNNY     26  22  84 E7        30.31R WCI  18
PARIS*         SUNNY     27  25  94 NW6       30.33R WCI  20
$$

ILZ079-100>102-291600-
SOUTHWEST ILLINOIS

CITY           SKY/WX    TMP DP  RH WIND       PRES   REMARKS
BELLEVILLE     MOSUNNY   25  25  99 N3        30.32R
CAHOKIA*       SUNNY     25  23  92 CALM      30.33R FOG
SPARTA*        PTSUNNY   27  24  90 NE3       30.32R
$$

ILZ064>066-069>071-074>076-080>082-084>086-088>090-092>094-291600-
SOUTH-CENTRAL ILLINOIS

CITY           SKY/WX    TMP DP  RH WIND       PRES   REMARKS
CARBONDALE     MOSUNNY   27  23  85 N3        30.31R
CAIRO*         CLOUDY    32  28  83 NE10      30.29R WCI  24
EFFINGHAM*     SUNNY     27  24  87 NE5       30.34R WCI  22
MARION         MOSUNNY   28  25  86 N6        30.31R WCI  22
MT. VERNON     MOSUNNY   28  25  86 NE7       30.31R WCI  21
CENTRALIA*     MOSUNNY   26  23  89 NE3       30.31R
SALEM*         MOSUNNY   28  24  86 NE5       30.32R WCI  23
METROPOLIS*    CLOUDY    32  28  84 NE5       30.27S WCI  27
$$

ILZ067-068-072-073-078-083-087-091-291600-
SOUTHEAST ILLINOIS

CITY           SKY/WX    TMP DP  RH WIND       PRES   REMARKS
LAWRENCEVILLE  SUNNY     28  25  88 N9        30.32R FOG     WCI  19
FLORA*         SUNNY     27  25  93 NE6       30.32R WCI  20
FAIRFIELD*     MOSUNNY   30  27  90 NE6       30.30R WCI  24
HARRISBURG*    PTSUNNY   28  27  95 NE6       30.32R WCI  22
ROBINSON*      SUNNY     25  24  96 N5        30.34R WCI  19
CARMI*         CLOUDY    31  29  94 NE5       30.31R WCI  26
$$

ABBREVIATIONS USED IN REMARKS
   TC - TEMPERATURE IN CELSIUS
  WCI - WIND CHILL INDEX
   HX - HEAT INDEX
  VSB - VISIBILITY
$$



USA.gov is the U.S. government's official web portal to all federal, state and local government web resources and services.